Location: Hausen
(47.8926°N, 8.4886°E)
Time: 11:12:41
(UTC+00:00)

Daily predictions for brighter satellites

Satellite Brightness Start Highest point End
(mag) Time Altitude Azimuth Time Altitude Azimuth Time Altitude Azimuth
BREEZE-M DEB (TANK) 3.1 16:05:08 10° SW 16:08:09 74° SE 16:18:03 10° ENE
Cosmos 614 Rocket 4.0 16:03:04 10° NNW 16:08:16 63° ENE 16:13:24 10° SE
Cosmos 1076 Rocket 4.2 16:05:28 10° N 16:09:28 34° ENE 16:13:26 10° SE
Tiangong 0.6 16:08:16 10° WSW 16:10:32 18° SSW 16:12:47 10° SSE
Meteor 2-16 Rocket 4.5 16:05:28 10° S 16:11:34 73° E 16:17:41 10° NNE
NOSS 3-4 (A) 3.9 16:05:00 10° NW 16:11:53 78° NE 16:19:49 10° SE
SAR-Lupe-2 3.6 16:08:25 10° SSE 16:11:57 62° ENE 16:15:30 10° N
NOSS 3-4 (C) 3.9 16:05:10 10° NW 16:11:59 78° NE 16:19:49 10° SE
NOSS 3-3 (C) 4.2 16:07:44 10° SW 16:13:15 67° NW 16:19:49 10° NE
NOSS 3-3 (A) 4.2 16:08:07 10° SW 16:13:38 66° NW 16:20:10 10° NE
Cosmos 2297 Rocket 2.8 16:08:38 10° SW 16:14:12 59° WNW 16:19:49 10° NNE
ERS-2 1.8 16:12:22 10° S 16:15:18 74° WSW 16:18:15 10° NNW
Cosmos 1953 Rocket 3.6 16:11:37 10° N 16:16:06 70° ENE 16:20:31 10° SSE
Cosmos 2219 3.4 16:10:42 10° S 16:16:10 57° ESE 16:21:41 10° NE
Cosmos 44 3.6 16:13:24 10° NNW 16:18:44 54° NE 16:23:51 10° SE
Cosmos 1125 Rocket 4.4 16:13:52 10° SW 16:18:55 49° WNW 16:24:03 10° NNE
DMSP B5D2-2 4.3 16:17:33 10° NNE 16:22:40 53° E 16:27:45 10° S
USA 234 3.8 16:16:51 10° ENE 16:23:05 45° SE 16:29:17 10° SSW
Cosmos 1862 3.3 16:20:20 10° N 16:24:15 89° WSW 16:28:10 10° S
USA 308 1.9 16:22:40 10° WNW 16:24:46 47° SW 16:26:31 10° SE
USA 307 3.1 16:24:02 10° NW 16:27:45 43° NNE 16:31:18 11° E
Cosmos 1666 3.2 16:25:04 10° N 16:28:14 30° ENE 16:31:24 10° SE
Cosmos 2084 Rocket 4.1 16:27:08 10° NW 16:30:52 52° SW 16:34:34 10° SSE
ISS -3.8 16:28:39 10° WNW 16:32:00 69° NNE 16:35:21 10° ESE
Cosmos 2279 Rocket 4.0 16:26:59 10° N 16:33:16 74° E 16:39:28 10° SSE
Cosmos 2082 4.0 16:28:11 10° S 16:33:33 49° ESE 16:38:58 10° NE
Aureole 3 Rocket 3.4 16:29:08 10° NNW 16:34:09 68° W 16:37:49 10° S
AQUARIUS 4.3 16:30:36 10° SSE 16:34:55 52° ENE 16:39:17 10° N
Cosmos 1606 4.1 16:33:45 10° SW 16:37:09 38° WNW 16:40:36 10° N
COSMO-SKYMED 1 4.0 16:34:41 11° NE 16:37:29 19° E 16:40:35 10° SE
ATLAS CENTAUR R/B 2.7 16:34:48 10° NW 16:38:37 53° NNE 16:45:52 10° ESE
Cosmos 2058 Rocket 3.0 16:34:27 10° S 16:38:51 69° E 16:43:15 10° NNE
Cosmos 405 Rocket 2.8 16:42:05 10° SSW 16:45:51 78° W 16:49:43 10° N
YAOGAN 11 4.2 16:41:20 10° NNE 16:45:54 85° WNW 16:50:27 10° SSW
Helios 1A 3.6 16:44:25 10° NNE 16:48:15 34° E 16:52:01 10° SSE
Cosmos 1140 Rocket 3.9 16:45:01 10° N 16:49:53 39° ENE 16:54:42 10° SE
SMAP 3.2 16:48:28 10° SSE 16:53:07 82° WSW 16:57:49 10° NNW
USA 306 1.2 16:51:19 10° NW 16:53:31 53° NNE 16:54:02 38° E
Nadezhda 4 Rocket 4.2 16:48:08 10° SSE 16:53:58 48° E 16:59:49 10° NNE
NOSS 8 (A) 4.4 16:51:32 10° SSW 16:55:22 64° SE 16:57:08 23° NE
CZ-4B R/B 4.3 16:58:57 20° ENE 16:58:57 20° ENE 17:01:49 10° NNE
Cosmos 1500 3.1 16:55:35 10° NNW 16:59:08 78° W 17:02:39 10° S
Meteor 1-20 Rocket 4.4 16:54:12 10° N 16:59:35 49° ENE 17:05:01 10° SSE
Cosmos-2242 3.4 16:57:14 10° SSE 17:01:18 41° E 17:05:02 12° NNE
Cosmos 1437 Rocket 3.8 16:59:47 10° NNW 17:03:21 45° W 17:06:55 10° S
NOAA 6 4.1 17:01:50 10° SE 17:06:49 54° ENE 17:11:49 10° N
Cosmos 2263 Rocket 2.1 17:01:43 10° SSW 17:07:15 77° ESE 17:12:14 13° NNE
USA 276 3.0 17:06:07 10° SSW 17:08:10 24° SSE 17:08:15 24° SE
SL-8 R/B 3.7 17:03:57 10° W 17:08:44 82° SSW 17:11:59 21° ESE
Cosmos 1844 Rocket 4.1 17:05:33 10° SE 17:08:55 18° ESE 17:08:55 18° ESE
Cosmos 2227 Rocket 3.3 17:04:48 10° WSW 17:10:07 41° NW 17:15:29 10° NNE
Cosmos 2151 4.1 17:06:52 10° NNW 17:10:57 46° W 17:15:01 10° SSW
CZ-4 R/B 4.4 17:13:23 10° SSE 17:17:22 55° ENE 17:21:23 10° N
YAOGAN 1 3.7 17:19:24 24° NE 17:19:24 24° NE 17:21:52 10° N
Cosmos 1603 3.8 17:14:50 10° NNW 17:20:25 52° ENE 17:25:55 10° SE
Cosmos 1812 2.5 17:17:01 10° S 17:20:38 59° E 17:22:20 28° NNE
Cosmos 2251 Rocket 3.6 17:16:48 10° NNW 17:22:05 56° ENE 17:27:20 10° SE
CZ-4B R/B 3.4 17:17:23 10° SSE 17:22:30 89° WSW 17:27:31 10° NNW
SKYMED 2 3.6 17:23:18 23° NNE 17:25:52 55° E 17:30:08 10° S
Cosmos 407 Rocket 3.5 17:21:39 10° NNW 17:26:46 56° ENE 17:31:47 10° SE
USA 305 2.5 17:23:56 10° WNW 17:27:47 68° NNE 17:28:38 49° E
ATLAS 2AS CENTAUR R/B 3.2 17:21:20 10° NW 17:27:50 38° NNE 17:30:16 29° ENE
APEX 4.3 17:25:08 10° S 17:26:37 21° SSE 17:26:37 21° SSE
Meteor 1-31 Rocket 4.4 17:25:31 10° SSW 17:28:55 35° W 17:32:21 10° NNW
Lacrosse 4 Rocket 1.3 17:27:59 10° NNW 17:32:21 71° NE 17:34:32 28° SE
SL-16 R/B 4.1 17:28:26 10° NW 17:33:24 32° WSW 17:38:19 10° SSW
Cosmos 1782 3.4 17:34:52 10° SSE 17:37:39 38° SE 17:37:39 38° SE
Cosmos 1818 3.9 17:34:28 10° S 17:39:34 43° ESE 17:40:25 40° E
Meteor 2-2 Rocket 4.2 17:35:52 10° S 17:41:34 71° E 17:47:24 10° NNE
Meteor 2-9 4.5 17:37:03 10° N 17:42:27 74° ENE 17:47:54 10° SSE
Meteor 2-17 Rocket 4.4 17:38:50 10° S 17:44:51 61° E 17:50:53 10° NNE
Cosmos 1943 3.3 17:42:07 10° NNW 17:47:45 75° WSW 17:53:22 10° SSE
Cosmos 1812 Rocket 3.5 17:45:28 10° SSW 17:49:47 79° W 17:52:19 25° N
CZ-4B DEB 4.2 17:49:04 24° SE 17:52:19 55° ENE 17:57:45 10° N
Radarsat Rocket 4.2 17:46:44 10° S 17:52:32 71° WSW 17:58:34 10° NNW
SL-08 R/B 3.1 17:54:03 51° NNE 17:55:09 77° ESE 17:59:47 10° S
Cosmos 1190 Rocket 4.0 17:50:28 10° NNW 17:55:44 59° ENE 17:56:11 56° E
ADEOS 3.5 17:51:55 10° SSE 17:57:08 84° WSW 18:02:24 10° NNW
USA 307 3.1 17:59:36 10° WNW 18:03:12 56° SW 18:03:12 56° SW
USA 234 3.3 18:03:40 38° NE 18:06:20 71° NNW 18:12:49 10° WSW
ISS -1.8 18:05:39 10° W 18:08:24 27° SW 18:08:24 27° SW
Cosmos 1553 Rocket 3.9 18:03:21 10° N 18:09:39 60° ENE 18:10:28 55° ESE
Cosmos 1844 4.4 18:05:20 10° S 18:09:25 39° SSE 18:09:25 39° SSE
Cosmos 2344 3.3 18:05:50 10° SW 18:13:24 85° SE 18:16:07 43° NE
COSMO-SKYMED 1 3.4 18:11:55 27° N 18:13:55 49° WNW 18:18:05 10° SW
Cosmos 2026 Rocket 4.1 18:16:02 10° SSW 18:22:17 75° W 18:28:39 10° N
Meteor 1-26 Rocket 4.3 18:16:53 10° S 18:21:27 61° SSE 18:21:27 61° SSE
Lacrosse 5 3.0 18:21:56 10° SSW 18:24:55 33° S 18:24:55 33° S
SME Rocket 4.3 18:26:34 14° S 18:31:18 73° WSW 18:39:30 10° NNW
Cosmos 1092 Rocket 4.4 18:29:38 10° SSW 18:35:40 58° WNW 18:41:44 10° N
ATLAS CENTAUR R/B 4.2 18:38:45 10° WNW 18:43:42 42° SW 18:52:07 12° SSE
Cosmos 2263 Rocket 4.1 18:47:27 10° W 18:51:49 23° NW 18:53:55 19° NNW
Cosmos 1844 Rocket 3.5 18:46:51 10° SSW 18:50:37 44° SW 18:50:37 44° SW
Lacrosse 4 Rocket 4.3 19:07:49 10° WNW 19:10:10 15° WSW 19:10:41 14° WSW
ATLAS 2AS CENTAUR R/B 3.2 19:12:23 10° NW 19:17:44 53° WNW 19:17:44 53° WNW
